McCall, ID

7:28 PM MST on February 25, 2017 (GMT -0700)
McCall

Weather History for KMYL - March, 2012

Change the Weather History Date:

Tuesday, March 13, 2012

  Actual Average Record
Temperature  
Mean Temperature 33 °F 28 °F  
Max Temperature 41 °F 39 °F 64 °F (1992)
Min Temperature 24 °F 17 °F -5 °F (1962)
Degree Days  
Heating Degree Days 32 37  
Month to date heating degree days 486 498  
Since 1 July heating degree days 6505 7173  
Cooling Degree Days 0 0  
Month to date cooling degree days 0 0  
Year to date cooling degree days 0 0  
Moisture  
Dew Point 28 °F    
Average Humidity 89    
Maximum Humidity 100    
Minimum Humidity 78    
Precipitation  
Precipitation 0.51 in 0.07 in 1.43 in (1939)
Month to date precipitation 1.45 0.73  
Year to date precipitation 7.11 4.20  
Sea Level Pressure  
Sea Level Pressure 29.64 in    
Wind  
Wind Speed 12 mph (SSE)    
Max Wind Speed 33 mph    
Max Gust Speed 43 mph    
Visibility 5 miles    
Events Fog , Rain , Snow    
T = Trace of Precipitation, MM = Missing Value Source: NWS Daily Summary

Daily Weather History Graph

Daily Weather History Graph

Search for Another Location

Airport or City:

Trip Planner

Search our weather history database for the weather conditions in past years. The results will help you decide how hot, cold, wet, or windy it might be!

Date:

Astronomy

Mar. 13, 2012 Rise Set
Actual Time 7:59 AM MDT 7:48 PM MDT
Civil Twilight 7:30 AM MDT 8:17 PM MDT
Nautical Twilight 6:56 AM MDT 8:51 PM MDT
Astronomical Twilight 6:21 AM MDT 9:26 PM MDT
Moon 1:41 AM MDT (3/13) 10:59 AM MDT (3/13)
Length of Visible Light 12h 47m
Length of Day
11h 49m
Waning Gibbous, 65% of the Moon is Illuminated
Mar 13
Waning Gibbous
Mar 14
Last Quarter
Mar 22
New
Mar 30
First Quarter
Apr 6
Full

Hourly Weather History & Observations

Time (MDT) Temp. Windchill Dew Point Humidity Pressure Visibility Wind Dir Wind Speed Gust Speed Precip Events Conditions
12:51 AM 39.9 °F 30.8 °F 30.0 °F 68% 29.64 in 10.0 mi SSE 18.4 mph 27.6 mph 0.00 in Rain Light Rain
1:51 AM 39.9 °F 33.4 °F 30.0 °F 68% 29.60 in 10.0 mi SW 10.4 mph 16.1 mph 0.00 in   Overcast
2:25 AM 39.2 °F 28.5 °F 28.4 °F 65% 29.60 in 10.0 mi South 24.2 mph 42.6 mph 0.00 in Rain Light Rain
2:36 AM 39.2 °F 29.3 °F 30.2 °F 70% 29.60 in 10.0 mi South 20.7 mph 29.9 mph 0.00 in Rain Light Rain
2:51 AM 37.9 °F 27.6 °F 30.9 °F 76% 29.64 in 10.0 mi South 20.7 mph 27.6 mph 0.00 in Rain Light Rain
3:51 AM 36.0 °F 25.6 °F 30.9 °F 82% 29.62 in 10.0 mi South 18.4 mph 28.8 mph 0.01 in Rain Light Rain
4:51 AM 37.0 °F 27.7 °F 30.0 °F 76% 29.59 in 10.0 mi SSE 16.1 mph 26.5 mph 0.00 in   Overcast
5:17 AM 37.4 °F 28.2 °F 28.4 °F 70% 29.57 in 10.0 mi SSE 16.1 mph 23.0 mph N/A   Overcast
6:17 AM 33.8 °F 24.3 °F 30.2 °F 87% 29.57 in 5.0 mi SE 13.8 mph 23.0 mph 0.01 in Snow Light Snow
6:42 AM 33.8 °F 22.8 °F 32.0 °F 93% 29.56 in 4.0 mi SE 18.4 mph 28.8 mph N/A Snow Light Snow
6:51 AM 33.1 °F 22.2 °F 30.9 °F 92% 29.60 in 2.5 mi SE 17.3 mph 27.6 mph 0.03 in Snow Light Snow
7:01 AM 33.8 °F 23.9 °F 30.2 °F 87% 29.56 in 2.5 mi SE 15.0 mph 25.3 mph N/A Snow Light Snow
7:08 AM 33.8 °F 24.3 °F 30.2 °F 87% 29.56 in 1.8 mi SE 13.8 mph - 0.03 in Snow Light Snow
7:27 AM 33.8 °F 25.3 °F 32.0 °F 93% 29.55 in 2.0 mi SE 11.5 mph - 0.06 in Snow Light Snow
7:41 AM 33.8 °F 25.8 °F 32.0 °F 93% 29.54 in 1.5 mi SE 10.4 mph - 0.07 in Snow Light Snow
7:51 AM 33.1 °F 23.9 °F 32.0 °F 96% 29.58 in 3.0 mi SE 12.7 mph - 0.08 in Snow Light Snow
8:45 AM 33.8 °F 23.5 °F 32.0 °F 93% 29.52 in 1.5 mi SE 16.1 mph 21.9 mph 0.03 in Snow Light Snow
8:51 AM 33.1 °F 22.6 °F 32.0 °F 96% 29.56 in 1.8 mi SSE 16.1 mph 23.0 mph 0.03 in Snow Light Snow
8:56 AM 33.8 °F 23.5 °F 32.0 °F 93% 29.52 in 3.0 mi SSE 16.1 mph 24.2 mph 0.00 in Snow Light Snow
9:23 AM 35.6 °F 25.2 °F 30.2 °F 81% 29.51 in 10.0 mi SSE 18.4 mph 25.3 mph 0.00 in   Overcast
9:29 AM 35.6 °F 25.2 °F 30.2 °F 81% 29.51 in 10.0 mi SSE 18.4 mph 26.5 mph 0.00 in   Overcast
9:51 AM 34.0 °F 23.8 °F 30.9 °F 89% 29.54 in 10.0 mi SSE 16.1 mph - 0.00 in   Overcast
10:51 AM 35.1 °F 25.5 °F 30.9 °F 85% 29.55 in 5.0 mi SSE 15.0 mph - 0.00 in Snow Light Snow
11:51 AM 34.0 °F 22.7 °F 30.9 °F 89% 29.52 in 6.0 mi South 19.6 mph - 0.01 in Snow Light Snow
12:01 PM 33.8 °F 21.9 °F 30.2 °F 87% 29.51 in 1.8 mi South 21.9 mph 27.6 mph 0.01 in Snow Light Snow
12:40 PM 33.8 °F 23.2 °F 30.2 °F 87% 29.52 in 1.2 mi South 17.3 mph 26.5 mph 0.06 in Snow Light Snow
12:51 PM 33.1 °F 21.9 °F 30.9 °F 92% 29.54 in 1.0 mi South 18.4 mph 26.5 mph 0.08 in Snow Light Snow
1:03 PM 33.8 °F 23.2 °F 32.0 °F 93% 29.52 in 0.8 mi SSE 17.3 mph 27.6 mph 0.02 in Snow Light Snow
1:29 PM 33.8 °F 22.8 °F 32.0 °F 93% 29.53 in 0.5 mi South 18.4 mph - 0.07 in Fog , Snow Snow
1:51 PM 30.9 °F 19.8 °F 28.9 °F 92% 29.60 in 0.2 mi WSW 16.1 mph 29.9 mph 0.12 in Fog , Snow Snow
1:54 PM 30.2 °F 17.4 °F 28.4 °F 93% 29.58 in 0.2 mi West 20.7 mph 29.9 mph 0.01 in Fog , Snow Heavy Snow
2:41 PM 28.4 °F 17.0 °F 24.8 °F 86% 29.63 in 1.0 mi WSW 15.0 mph 31.1 mph 0.11 in Snow Light Snow
2:51 PM 28.9 °F 18.2 °F 25.0 °F 85% 29.66 in 1.2 mi West 13.8 mph 23.0 mph 0.12 in Snow Light Snow
3:17 PM 28.4 °F 16.6 °F 24.8 °F 86% 29.64 in 1.0 mi WSW 16.1 mph 28.8 mph 0.00 in Snow Light Snow
3:20 PM 28.4 °F 19.7 °F 24.8 °F 86% 29.65 in 1.2 mi WSW 9.2 mph 25.3 mph 0.00 in Snow Light Snow
3:25 PM 30.2 °F 19.8 °F 23.0 °F 75% 29.65 in 3.0 mi WSW 13.8 mph 26.5 mph 0.00 in Snow Light Snow
3:51 PM 30.9 °F 21.2 °F 23.0 °F 72% 29.70 in 10.0 mi West 12.7 mph 19.6 mph 0.00 in   Mostly Cloudy
4:18 PM 30.2 °F 22.6 °F 24.8 °F 80% 29.69 in 2.0 mi South 8.1 mph - 0.01 in Snow Light Snow
4:40 PM 28.4 °F 22.2 °F 24.8 °F 86% 29.71 in 1.0 mi South 5.8 mph - 0.01 in Snow Light Snow
4:45 PM 28.4 °F 20.4 °F 24.8 °F 86% 29.71 in 0.8 mi South 8.1 mph - 0.02 in Snow Light Snow
4:51 PM 28.9 °F 19.2 °F 25.0 °F 85% 29.77 in 1.0 mi South 11.5 mph 16.1 mph 0.02 in Snow Light Snow
5:12 PM 28.4 °F 20.4 °F 23.0 °F 80% 29.72 in 1.5 mi East 8.1 mph 16.1 mph 0.00 in Snow Light Snow
5:27 PM 28.4 °F 18.5 °F 24.8 °F 86% 29.72 in 2.0 mi East 11.5 mph - 0.00 in Snow Light Snow
5:38 PM 28.4 °F 18.5 °F 23.0 °F 80% 29.72 in 3.0 mi East 11.5 mph - 0.00 in Snow Light Snow
5:51 PM 28.0 °F 17.5 °F 23.0 °F 81% 29.78 in 2.5 mi ESE 12.7 mph 20.7 mph 0.00 in Snow Light Snow
6:04 PM 28.4 °F 18.5 °F 23.0 °F 80% 29.73 in 4.0 mi SE 11.5 mph - 0.00 in Snow Light Snow
6:51 PM 28.9 °F 22.8 °F 24.1 °F 82% 29.80 in 10.0 mi SSE 5.8 mph - 0.00 in   Overcast
7:12 PM 28.4 °F 21.2 °F 24.8 °F 86% 29.75 in 10.0 mi SSE 6.9 mph - N/A   Overcast
7:25 PM 28.4 °F 22.2 °F 24.8 °F 86% 29.76 in 10.0 mi South 5.8 mph - N/A   Mostly Cloudy
7:51 PM 27.0 °F - 24.1 °F 89% 29.83 in 10.0 mi Calm Calm - N/A   Clear
8:51 PM 26.1 °F 21.9 °F 24.1 °F 92% 29.86 in 10.0 mi SW 3.5 mph - N/A   Partly Cloudy
9:51 PM 24.1 °F 19.7 °F 21.9 °F 91% 29.87 in 10.0 mi South 3.5 mph - N/A   Clear
10:51 PM 26.1 °F - 23.0 °F 88% 29.88 in 10.0 mi Calm Calm - N/A   Clear
11:51 PM 25.0 °F - 24.1 °F 96% 29.88 in 10.0 mi Calm Calm - N/A   Overcast